Location: Easter Hill Village
(37.9235°N, 122.3444°W)
Time: 21:11:00
(UTC+00:00)

COSMOS 2487 - Pass Details

Date: 16 September 2019
Orbit: 445 x 448 km, 74.7° (Epoch: 13 October)

Event Time Altitude Azimuth Distance (km) Brightness Sun altitude
Rises 13:15:52 0° 326° (NW) 2,458 5.9 -7.9°
Reaches altitude 10° 13:18:21 10° 308° (NW) 1,580 4.8 -7.4°
Maximum altitude 13:20:54 19° 261° (W) 1,119 3.8 -6.9°
Drops below altitude 10° 13:23:26 10° 213° (SSW) 1,568 4.8 -6.4°
Sets 13:25:53 0° 195° (SSW) 2,433 5.9 -5.9°
